Time,TemperatureF,DewpointF,PressureIn,WindDirection,WindDirectionDegrees,WindSpeedMPH,WindSpeedGustMPH,Humidity,HourlyPrecipIn,Conditions,Clouds,dailyrainin,SoftwareType,DateUTC
2013-11-05 00:04:00,48.3,43.1,30.12,SW,223,0.0,7.0,82,0.00,,,0.00,Wunderground v.1.15,2013-11-05 06:04:00,
2013-11-05 00:10:00,48.3,43.1,30.11,SW,224,0.0,7.0,82,0.00,,,0.00,Wunderground v.1.15,2013-11-05 06:10:00,
2013-11-05 00:16:00,48.2,43.0,30.12,SW,224,0.0,7.0,82,0.00,,,0.00,Wunderground v.1.15,2013-11-05 06:16:00,
2013-11-05 00:22:00,48.2,43.0,30.12,SW,224,0.0,7.0,82,0.00,,,0.00,Wunderground v.1.15,2013-11-05 06:22:00,
2013-11-05 00:28:00,48.2,43.0,30.12,SW,224,0.0,7.0,82,0.00,,,0.00,Wunderground v.1.15,2013-11-05 06:28:00,
2013-11-05 00:34:00,48.1,42.9,30.12,SW,224,0.0,7.0,82,0.00,,,0.00,Wunderground v.1.15,2013-11-05 06:34:00,
2013-11-05 00:40:00,48.1,42.9,30.12,SW,224,0.0,7.0,82,0.00,,,0.00,Wunderground v.1.15,2013-11-05 06:40:00,
2013-11-05 00:45:00,48.1,42.9,30.12,SW,224,0.0,7.0,82,0.00,,,0.00,Wunderground v.1.15,2013-11-05 06:45:00,
2013-11-05 00:51:00,48.0,42.8,30.12,SW,223,0.0,7.0,82,0.00,,,0.00,Wunderground v.1.15,2013-11-05 06:51:00,
2013-11-05 00:57:00,47.9,42.7,30.12,SW,224,0.0,7.0,82,0.00,,,0.00,Wunderground v.1.15,2013-11-05 06:57:00,
2013-11-05 01:02:00,47.9,42.7,30.13,SW,223,0.0,7.0,82,0.00,,,0.00,Wunderground v.1.15,2013-11-05 07:02:00,
2013-11-05 01:07:00,47.9,42.7,30.13,SW,224,0.0,7.0,82,0.00,,,0.00,Wunderground v.1.15,2013-11-05 07:07:00,
2013-11-05 01:13:00,47.8,42.6,30.12,SW,224,0.0,7.0,82,0.00,,,0.00,Wunderground v.1.15,2013-11-05 07:13:00,
2013-11-05 01:19:00,47.8,42.6,30.13,SW,223,0.0,7.0,82,0.00,,,0.00,Wunderground v.1.15,2013-11-05 07:19:00,
2013-11-05 01:25:00,47.8,42.6,30.13,SW,223,0.0,7.0,82,0.00,,,0.00,Wunderground v.1.15,2013-11-05 07:25:00,
2013-11-05 01:30:00,47.8,42.6,30.13,SW,224,0.0,7.0,82,0.00,,,0.00,Wunderground v.1.15,2013-11-05 07:30:00,
2013-11-05 01:36:00,47.7,42.5,30.13,SW,224,0.0,7.0,82,0.00,,,0.00,Wunderground v.1.15,2013-11-05 07:36:00,
2013-11-05 01:41:00,47.7,42.5,30.13,SW,223,0.0,7.0,82,0.00,,,0.00,Wunderground v.1.15,2013-11-05 07:41:00,
2013-11-05 01:47:00,47.6,42.4,30.13,SW,223,0.0,7.0,82,0.00,,,0.00,Wunderground v.1.15,2013-11-05 07:47:00,
2013-11-05 01:53:00,47.6,42.4,30.13,SW,223,0.0,7.0,82,0.00,,,0.00,Wunderground v.1.15,2013-11-05 07:53:00,
2013-11-05 01:59:00,47.5,42.3,30.13,SW,224,0.0,7.0,82,0.00,,,0.00,Wunderground v.1.15,2013-11-05 07:59:00,
2013-11-05 02:05:00,47.4,42.2,30.12,SW,224,0.0,7.0,82,0.00,,,0.00,Wunderground v.1.15,2013-11-05 08:05:00,
2013-11-05 02:11:00,47.4,42.2,30.13,SW,224,0.0,7.0,82,0.00,,,0.00,Wunderground v.1.15,2013-11-05 08:11:00,
2013-11-05 02:17:00,47.4,42.2,30.13,SW,223,0.0,7.0,82,0.00,,,0.00,Wunderground v.1.15,2013-11-05 08:17:00,
2013-11-05 02:22:00,47.4,42.2,30.13,SW,224,0.0,7.0,82,0.00,,,0.00,Wunderground v.1.15,2013-11-05 08:22:00,
2013-11-05 02:28:00,47.4,42.2,30.13,SW,223,0.0,7.0,82,0.00,,,0.00,Wunderground v.1.15,2013-11-05 08:28:00,
2013-11-05 02:34:00,47.3,42.1,30.13,SW,223,0.0,7.0,82,0.00,,,0.00,Wunderground v.1.15,2013-11-05 08:34:00,
2013-11-05 02:40:00,47.3,42.1,30.13,SW,223,0.0,7.0,82,0.00,,,0.00,Wunderground v.1.15,2013-11-05 08:40:00,
2013-11-05 02:46:00,47.3,42.1,30.13,SW,224,0.0,7.0,82,0.00,,,0.00,Wunderground v.1.15,2013-11-05 08:46:00,
2013-11-05 02:52:00,47.3,41.8,30.12,SW,224,0.0,7.0,81,0.00,,,0.00,Wunderground v.1.15,2013-11-05 08:52:00,
2013-11-05 02:58:00,47.3,41.8,30.12,SW,224,0.0,7.0,81,0.00,,,0.00,Wunderground v.1.15,2013-11-05 08:58:00,
2013-11-05 03:04:00,47.3,41.8,30.12,SW,224,0.0,7.0,81,0.00,,,0.00,Wunderground v.1.15,2013-11-05 09:04:00,
2013-11-05 03:10:00,47.2,41.3,30.12,SW,223,0.0,7.0,80,0.00,,,0.00,Wunderground v.1.15,2013-11-05 09:10:00,
2013-11-05 03:16:00,47.2,41.3,30.11,SW,224,0.0,7.0,80,0.00,,,0.00,Wunderground v.1.15,2013-11-05 09:16:00,
2013-11-05 03:21:00,47.2,41.3,30.10,SW,223,0.0,7.0,80,0.00,,,0.00,Wunderground v.1.15,2013-11-05 09:21:00,
2013-11-05 03:27:00,47.1,41.2,30.10,SW,224,0.0,7.0,80,0.00,,,0.00,Wunderground v.1.15,2013-11-05 09:27:00,
2013-11-05 03:33:00,47.0,40.8,30.10,SW,225,0.0,7.0,79,0.00,,,0.00,Wunderground v.1.15,2013-11-05 09:33:00,
2013-11-05 03:39:00,46.9,40.7,30.10,SW,225,0.0,7.0,79,0.00,,,0.00,Wunderground v.1.15,2013-11-05 09:39:00,
2013-11-05 03:45:00,46.9,40.7,30.10,SW,225,0.0,7.0,79,0.00,,,0.00,Wunderground v.1.15,2013-11-05 09:45:00,
2013-11-05 03:51:00,46.8,40.6,30.11,SW,225,0.0,7.0,79,0.00,,,0.00,Wunderground v.1.15,2013-11-05 09:51:00,
2013-11-05 03:56:00,46.8,40.6,30.11,SW,225,0.0,7.0,79,0.00,,,0.00,Wunderground v.1.15,2013-11-05 09:56:00,
2013-11-05 04:02:00,46.9,40.7,30.11,SSW,206,0.0,7.0,79,0.00,,,0.00,Wunderground v.1.15,2013-11-05 10:02:00,
2013-11-05 04:07:00,46.9,40.7,30.11,South,173,0.0,7.0,79,0.00,,,0.00,Wunderground v.1.15,2013-11-05 10:07:00,
2013-11-05 04:13:00,46.9,40.7,30.11,South,173,0.0,7.0,79,0.00,,,0.00,Wunderground v.1.15,2013-11-05 10:13:00,
2013-11-05 04:19:00,46.9,40.7,30.11,South,173,0.0,7.0,79,0.00,,,0.00,Wunderground v.1.15,2013-11-05 10:19:00,
2013-11-05 04:25:00,46.9,40.7,30.11,South,173,0.0,7.0,79,0.00,,,0.00,Wunderground v.1.15,2013-11-05 10:25:00,
2013-11-05 04:31:00,46.9,40.7,30.12,WNW,287,0.0,7.0,79,0.00,,,0.00,Wunderground v.1.15,2013-11-05 10:31:00,
2013-11-05 04:36:00,46.9,40.7,30.12,WNW,287,0.0,7.0,79,0.00,,,0.00,Wunderground v.1.15,2013-11-05 10:36:00,
2013-11-05 04:42:00,46.9,40.7,30.12,WNW,287,0.0,7.0,79,0.00,,,0.00,Wunderground v.1.15,2013-11-05 10:42:00,
2013-11-05 04:47:00,46.8,40.6,30.12,WNW,287,0.0,7.0,79,0.00,,,0.00,Wunderground v.1.15,2013-11-05 10:47:00,
2013-11-05 04:53:00,46.8,41.0,30.12,WNW,287,0.0,7.0,80,0.00,,,0.00,Wunderground v.1.15,2013-11-05 10:53:00,
2013-11-05 04:59:00,46.7,40.9,30.13,WNW,288,0.0,7.0,80,0.00,,,0.00,Wunderground v.1.15,2013-11-05 10:59:00,
2013-11-05 05:05:00,46.7,40.9,30.13,WNW,290,0.0,7.0,80,0.00,,,0.00,Wunderground v.1.15,2013-11-05 11:05:00,
2013-11-05 05:11:00,46.7,40.9,30.13,WNW,290,0.0,7.0,80,0.00,,,0.00,Wunderground v.1.15,2013-11-05 11:11:00,
2013-11-05 05:17:00,46.6,41.1,30.13,WNW,290,0.0,7.0,81,0.00,,,0.00,Wunderground v.1.15,2013-11-05 11:17:00,
2013-11-05 05:23:00,46.6,41.1,30.13,WNW,290,0.0,7.0,81,0.00,,,0.00,Wunderground v.1.15,2013-11-05 11:23:00,
2013-11-05 05:29:00,46.6,41.1,30.14,WNW,291,0.0,7.0,81,0.00,,,0.00,Wunderground v.1.15,2013-11-05 11:29:00,
2013-11-05 05:34:00,46.6,41.1,30.14,WNW,291,0.0,7.0,81,0.00,,,0.00,Wunderground v.1.15,2013-11-05 11:34:00,
2013-11-05 05:39:00,46.6,41.1,30.13,WNW,291,0.0,7.0,81,0.00,,,0.00,Wunderground v.1.15,2013-11-05 11:39:00,
2013-11-05 05:45:00,46.6,41.1,30.12,WNW,291,0.0,7.0,81,0.00,,,0.00,Wunderground v.1.15,2013-11-05 11:45:00,
2013-11-05 05:51:00,46.6,41.4,30.11,WNW,291,0.0,7.0,82,0.00,,,0.00,Wunderground v.1.15,2013-11-05 11:51:00,
2013-11-05 05:57:00,46.5,41.0,30.12,WNW,293,0.0,7.0,81,0.00,,,0.00,Wunderground v.1.15,2013-11-05 11:57:00,
2013-11-05 06:02:00,46.5,41.0,30.12,WNW,293,0.0,7.0,81,0.00,,,0.00,Wunderground v.1.15,2013-11-05 12:02:00,
2013-11-05 06:08:00,46.5,41.0,30.12,WNW,294,0.0,7.0,81,0.00,,,0.00,Wunderground v.1.15,2013-11-05 12:08:00,
2013-11-05 06:13:00,46.5,41.0,30.12,WNW,294,0.0,7.0,81,0.00,,,0.00,Wunderground v.1.15,2013-11-05 12:13:00,
2013-11-05 06:19:00,46.5,41.3,30.12,WNW,298,0.0,7.0,82,0.00,,,0.00,Wunderground v.1.15,2013-11-05 12:19:00,
2013-11-05 06:24:00,46.4,41.2,30.12,WNW,298,0.0,7.0,82,0.00,,,0.00,Wunderground v.1.15,2013-11-05 12:24:00,
2013-11-05 06:29:00,46.3,41.1,30.12,NE,51,0.0,7.0,82,0.00,,,0.00,Wunderground v.1.15,2013-11-05 12:29:00,
2013-11-05 06:35:00,46.3,41.4,30.12,NE,51,1.0,7.0,83,0.00,,,0.00,Wunderground v.1.15,2013-11-05 12:35:00,
2013-11-05 06:41:00,46.2,41.3,30.12,WNW,284,1.0,7.0,83,0.00,,,0.00,Wunderground v.1.15,2013-11-05 12:41:00,
2013-11-05 06:46:00,46.2,41.3,30.11,WNW,284,1.0,7.0,83,0.00,,,0.00,Wunderground v.1.15,2013-11-05 12:46:00,
2013-11-05 06:52:00,46.2,41.3,30.12,WNW,284,1.0,7.0,83,0.00,,,0.00,Wunderground v.1.15,2013-11-05 12:52:00,
2013-11-05 06:57:00,46.1,41.2,30.12,WNW,284,1.0,7.0,83,0.00,,,0.00,Wunderground v.1.15,2013-11-05 12:57:00,
2013-11-05 07:03:00,46.1,41.2,30.12,NNW,332,1.0,7.0,83,0.00,,,0.00,Wunderground v.1.15,2013-11-05 13:03:00,
2013-11-05 07:09:00,46.2,41.3,30.12,NW,312,1.0,7.0,83,0.00,,,0.00,Wunderground v.1.15,2013-11-05 13:09:00,
2013-11-05 07:14:00,46.2,41.3,30.12,NW,309,1.0,7.0,83,0.00,,,0.00,Wunderground v.1.15,2013-11-05 13:14:00,
2013-11-05 07:20:00,46.1,41.2,30.12,NNW,333,2.0,2.0,83,0.00,,,0.00,Wunderground v.1.15,2013-11-05 13:20:00,
2013-11-05 07:26:00,46.0,41.4,30.11,NW,317,1.0,7.0,84,0.00,,,0.00,Wunderground v.1.15,2013-11-05 13:26:00,
2013-11-05 07:32:00,46.0,41.4,30.11,NNW,338,1.0,7.0,84,0.00,,,0.00,Wunderground v.1.15,2013-11-05 13:32:00,
2013-11-05 07:38:00,46.0,41.4,30.11,NNW,346,1.0,7.0,84,0.00,,,0.00,Wunderground v.1.15,2013-11-05 13:38:00,
2013-11-05 07:43:00,46.0,41.4,30.11,NW,321,1.0,7.0,84,0.00,,,0.00,Wunderground v.1.15,2013-11-05 13:43:00,
2013-11-05 07:48:00,46.0,41.4,30.11,NW,314,1.0,7.0,84,0.00,,,0.00,Wunderground v.1.15,2013-11-05 13:48:00,
2013-11-05 07:54:00,46.0,41.4,30.11,NW,313,1.0,7.0,84,0.00,,,0.00,Wunderground v.1.15,2013-11-05 13:54:00,
2013-11-05 08:00:00,46.1,41.5,30.12,NW,313,1.0,7.0,84,0.00,,,0.00,Wunderground v.1.15,2013-11-05 14:00:00,
2013-11-05 08:06:00,46.1,41.5,30.12,NNE,26,1.0,7.0,84,0.00,,,0.00,Wunderground v.1.15,2013-11-05 14:06:00,
2013-11-05 08:12:00,46.1,41.5,30.12,NNW,329,2.0,7.0,84,0.00,,,0.00,Wunderground v.1.15,2013-11-05 14:12:00,
2013-11-05 08:18:00,46.1,41.5,30.12,NNW,329,1.0,7.0,84,0.00,,,0.00,Wunderground v.1.15,2013-11-05 14:18:00,
2013-11-05 08:23:00,46.1,41.5,30.12,ENE,69,1.0,7.0,84,0.00,,,0.00,Wunderground v.1.15,2013-11-05 14:23:00,
2013-11-05 08:29:00,46.2,41.3,30.11,North,350,1.0,7.0,83,0.00,,,0.00,Wunderground v.1.15,2013-11-05 14:29:00,
2013-11-05 08:35:00,46.2,41.3,30.11,NW,314,2.0,7.0,83,0.00,,,0.00,Wunderground v.1.15,2013-11-05 14:35:00,
2013-11-05 08:41:00,46.2,41.3,30.11,NNE,22,1.0,7.0,83,0.00,,,0.00,Wunderground v.1.15,2013-11-05 14:41:00,
2013-11-05 08:46:00,46.2,41.3,30.11,NW,314,1.0,7.0,83,0.00,,,0.00,Wunderground v.1.15,2013-11-05 14:46:00,
2013-11-05 08:52:00,46.3,41.4,30.10,NNW,334,2.0,7.0,83,0.00,,,0.00,Wunderground v.1.15,2013-11-05 14:52:00,
2013-11-05 08:57:00,46.3,41.7,30.10,NNW,340,2.0,7.0,84,0.00,,,0.00,Wunderground v.1.15,2013-11-05 14:57:00,
2013-11-05 09:03:00,46.2,41.3,30.10,NW,312,2.0,7.0,83,0.00,,,0.00,Wunderground v.1.15,2013-11-05 15:03:00,
2013-11-05 09:09:00,46.1,41.2,30.09,ENE,72,2.0,7.0,83,0.00,,,0.00,Wunderground v.1.15,2013-11-05 15:09:00,
2013-11-05 09:15:00,46.1,41.5,30.09,NW,312,2.0,7.0,84,0.00,,,0.00,Wunderground v.1.15,2013-11-05 15:15:00,
2013-11-05 09:21:00,45.9,41.6,30.09,East,94,2.0,7.0,85,0.00,,,0.00,Wunderground v.1.15,2013-11-05 15:21:00,
2013-11-05 09:27:00,45.8,41.9,30.09,East,94,2.0,7.0,86,0.00,,,0.00,Wunderground v.1.15,2013-11-05 15:27:00,
2013-11-05 09:33:00,45.6,42.0,30.08,NNW,340,1.0,7.0,87,0.00,,,0.01,Wunderground v.1.15,2013-11-05 15:33:00,
2013-11-05 09:39:00,45.4,42.1,30.08,NW,322,1.0,7.0,88,0.00,,,0.01,Wunderground v.1.15,2013-11-05 15:39:00,
2013-11-05 09:45:00,45.1,42.1,30.07,NW,310,2.0,7.0,89,0.00,,,0.01,Wunderground v.1.15,2013-11-05 15:45:00,
2013-11-05 09:51:00,45.0,42.2,30.07,NW,315,1.0,7.0,90,0.00,,,0.01,Wunderground v.1.15,2013-11-05 15:51:00,
2013-11-05 09:56:00,45.0,42.2,30.07,NW,316,1.0,7.0,90,0.00,,,0.01,Wunderground v.1.15,2013-11-05 15:56:00,
2013-11-05 10:02:00,45.0,42.5,30.06,NW,316,1.0,7.0,91,0.00,,,0.01,Wunderground v.1.15,2013-11-05 16:02:00,
2013-11-05 10:08:00,45.0,42.5,30.06,NNW,340,1.0,7.0,91,0.00,,,0.01,Wunderground v.1.15,2013-11-05 16:08:00,
2013-11-05 10:14:00,45.0,42.5,30.06,NNW,348,1.0,7.0,91,0.00,,,0.01,Wunderground v.1.15,2013-11-05 16:14:00,
2013-11-05 10:19:00,45.1,42.9,30.05,NNE,18,2.0,7.0,92,0.00,,,0.01,Wunderground v.1.15,2013-11-05 16:19:00,
2013-11-05 10:25:00,45.1,42.9,30.05,NNE,15,2.0,7.0,92,0.00,,,0.01,Wunderground v.1.15,2013-11-05 16:25:00,
2013-11-05 10:30:00,45.2,43.0,30.05,NNE,14,1.0,7.0,92,0.00,,,0.01,Wunderground v.1.15,2013-11-05 16:30:00,
2013-11-05 10:35:00,45.2,43.0,30.05,NNE,13,1.0,7.0,92,0.00,,,0.01,Wunderground v.1.15,2013-11-05 16:35:00,
2013-11-05 10:41:00,45.2,43.0,30.05,North,9,1.0,7.0,92,0.00,,,0.01,Wunderground v.1.15,2013-11-05 16:41:00,
2013-11-05 10:47:00,45.2,43.3,30.05,NW,319,0.0,7.0,93,0.00,,,0.02,Wunderground v.1.15,2013-11-05 16:47:00,
2013-11-05 10:53:00,45.3,43.4,30.05,NNW,336,0.0,7.0,93,0.00,,,0.02,Wunderground v.1.15,2013-11-05 16:53:00,
2013-11-05 10:59:00,45.5,43.6,30.04,NNW,336,0.0,7.0,93,0.00,,,0.02,Wunderground v.1.15,2013-11-05 16:59:00,
2013-11-05 11:04:00,45.7,44.1,30.03,NNW,338,1.0,7.0,94,0.00,,,0.02,Wunderground v.1.15,2013-11-05 17:04:00,
2013-11-05 11:10:00,45.8,44.2,30.04,NE,54,2.0,2.0,94,0.00,,,0.02,Wunderground v.1.15,2013-11-05 17:10:00,
2013-11-05 11:15:00,46.0,44.4,30.03,NE,45,1.0,7.0,94,0.00,,,0.02,Wunderground v.1.15,2013-11-05 17:15:00,
2013-11-05 11:21:00,46.1,44.5,30.02,NNE,29,2.0,7.0,94,0.00,,,0.02,Wunderground v.1.15,2013-11-05 17:21:00,
2013-11-05 11:27:00,46.1,44.5,30.01,NE,37,2.0,7.0,94,0.00,,,0.02,Wunderground v.1.15,2013-11-05 17:27:00,
2013-11-05 11:33:00,46.2,44.8,30.01,NNE,28,2.0,7.0,95,0.00,,,0.02,Wunderground v.1.15,2013-11-05 17:33:00,
2013-11-05 11:39:00,46.3,44.9,30.00,ENE,62,2.0,7.0,95,0.00,,,0.02,Wunderground v.1.15,2013-11-05 17:39:00,
2013-11-05 11:45:00,46.5,45.1,30.00,NE,40,2.0,7.0,95,0.00,,,0.02,Wunderground v.1.15,2013-11-05 17:45:00,
2013-11-05 11:50:00,46.6,45.2,29.98,NE,36,2.0,7.0,95,0.00,,,0.02,Wunderground v.1.15,2013-11-05 17:50:00,
2013-11-05 11:56:00,46.7,45.3,29.98,NNW,345,2.0,7.0,95,0.00,,,0.02,Wunderground v.1.15,2013-11-05 17:56:00,
2013-11-05 12:02:00,46.9,45.5,29.97,NW,318,2.0,7.0,95,0.00,,,0.02,Wunderground v.1.15,2013-11-05 18:02:00,
2013-11-05 12:07:00,46.9,45.5,29.97,NE,40,3.0,7.0,95,0.00,,,0.02,Wunderground v.1.15,2013-11-05 18:07:00,
2013-11-05 12:13:00,47.0,45.6,29.97,NNE,19,2.0,7.0,95,0.00,,,0.02,Wunderground v.1.15,2013-11-05 18:13:00,
2013-11-05 12:19:00,47.2,45.8,29.96,NNE,27,2.0,7.0,95,0.00,,,0.02,Wunderground v.1.15,2013-11-05 18:19:00,
2013-11-05 12:25:00,47.2,46.1,29.95,North,11,3.0,7.0,96,0.00,,,0.02,Wunderground v.1.15,2013-11-05 18:25:00,
2013-11-05 12:30:00,47.4,46.3,29.95,North,11,2.0,7.0,96,0.00,,,0.02,Wunderground v.1.15,2013-11-05 18:30:00,
2013-11-05 12:36:00,47.5,46.4,29.94,ENE,60,1.0,7.0,96,0.00,,,0.02,Wunderground v.1.15,2013-11-05 18:36:00,
2013-11-05 12:41:00,47.6,46.5,29.94,NE,42,2.0,7.0,96,0.00,,,0.02,Wunderground v.1.15,2013-11-05 18:41:00,
2013-11-05 12:47:00,47.8,46.7,29.93,ENE,72,2.0,7.0,96,0.00,,,0.02,Wunderground v.1.15,2013-11-05 18:47:00,
2013-11-05 12:53:00,48.1,47.0,29.93,North,5,2.0,7.0,96,0.00,,,0.03,Wunderground v.1.15,2013-11-05 18:53:00,
2013-11-05 12:59:00,48.2,47.1,29.92,NNW,336,2.0,7.0,96,0.00,,,0.03,Wunderground v.1.15,2013-11-05 18:59:00,
2013-11-05 13:04:00,48.3,47.2,29.92,NE,42,2.0,7.0,96,0.05,,,0.04,Wunderground v.1.15,2013-11-05 19:04:00,
2013-11-05 13:10:00,48.5,47.4,29.91,NE,49,2.0,7.0,96,0.07,,,0.05,Wunderground v.1.15,2013-11-05 19:10:00,
2013-11-05 13:16:00,48.6,47.5,29.91,NNE,26,2.0,7.0,96,0.11,,,0.06,Wunderground v.1.15,2013-11-05 19:16:00,
2013-11-05 13:22:00,48.8,47.7,29.90,NNE,24,1.0,7.0,96,0.08,,,0.06,Wunderground v.1.15,2013-11-05 19:22:00,
2013-11-05 13:28:00,49.0,47.9,29.90,NE,36,1.0,7.0,96,0.07,,,0.07,Wunderground v.1.15,2013-11-05 19:28:00,
2013-11-05 13:33:00,49.2,48.1,29.89,NNE,21,2.0,7.0,96,0.07,,,0.08,Wunderground v.1.15,2013-11-05 19:33:00,
2013-11-05 13:39:00,49.4,48.6,29.89,NNE,32,2.0,7.0,97,0.07,,,0.08,Wunderground v.1.15,2013-11-05 19:39:00,
2013-11-05 13:45:00,49.7,48.9,29.88,North,349,2.0,7.0,97,0.05,,,0.08,Wunderground v.1.15,2013-11-05 19:45:00,
2013-11-05 13:51:00,49.9,49.1,29.87,NNE,13,2.0,7.0,97,0.00,,,0.08,Wunderground v.1.15,2013-11-05 19:51:00,
2013-11-05 13:56:00,50.2,49.4,29.87,NNE,25,3.0,7.0,97,0.00,,,0.08,Wunderground v.1.15,2013-11-05 19:56:00,
2013-11-05 14:02:00,50.5,49.7,29.87,NE,47,2.0,7.0,97,0.00,,,0.09,Wunderground v.1.15,2013-11-05 20:02:00,
2013-11-05 14:07:00,50.7,49.9,29.86,NE,56,2.0,7.0,97,0.00,,,0.09,Wunderground v.1.15,2013-11-05 20:07:00,
2013-11-05 14:13:00,50.9,50.1,29.85,NNE,17,2.0,7.0,97,0.06,,,0.10,Wunderground v.1.15,2013-11-05 20:13:00,
2013-11-05 14:19:00,51.2,50.4,29.85,NE,44,3.0,7.0,97,0.06,,,0.10,Wunderground v.1.15,2013-11-05 20:19:00,
2013-11-05 14:25:00,51.5,50.7,29.85,North,9,3.0,7.0,97,0.04,,,0.10,Wunderground v.1.15,2013-11-05 20:25:00,
2013-11-05 14:31:00,51.8,51.0,29.84,North,5,3.0,7.0,97,0.00,,,0.10,Wunderground v.1.15,2013-11-05 20:31:00,
2013-11-05 14:37:00,52.1,51.3,29.84,NNW,344,3.0,7.0,97,0.00,,,0.11,Wunderground v.1.15,2013-11-05 20:37:00,
2013-11-05 14:43:00,52.3,51.5,29.84,ENE,63,3.0,7.0,97,0.00,,,0.11,Wunderground v.1.15,2013-11-05 20:43:00,
2013-11-05 14:48:00,52.4,51.6,29.83,NNE,28,2.0,7.0,97,0.00,,,0.11,Wunderground v.1.15,2013-11-05 20:48:00,
2013-11-05 14:54:00,52.6,51.8,29.83,NE,56,2.0,7.0,97,0.00,,,0.12,Wunderground v.1.15,2013-11-05 20:54:00,
2013-11-05 15:00:00,52.8,52.0,29.83,NNE,27,3.0,7.0,97,0.09,,,0.12,Wunderground v.1.15,2013-11-05 21:00:00,
2013-11-05 15:06:00,52.9,52.1,29.83,North,5,2.0,7.0,97,0.09,,,0.13,Wunderground v.1.15,2013-11-05 21:06:00,
2013-11-05 15:11:00,53.0,52.2,29.83,NNE,20,2.0,7.0,97,0.05,,,0.13,Wunderground v.1.15,2013-11-05 21:11:00,
2013-11-05 15:17:00,53.1,52.3,29.83,NE,44,2.0,7.0,97,0.00,,,0.13,Wunderground v.1.15,2013-11-05 21:17:00,
2013-11-05 15:23:00,53.1,52.3,29.83,NNE,21,2.0,7.0,97,0.00,,,0.14,Wunderground v.1.15,2013-11-05 21:23:00,
2013-11-05 15:29:00,53.2,52.4,29.82,NNE,19,2.0,7.0,97,0.21,,,0.16,Wunderground v.1.15,2013-11-05 21:29:00,
2013-11-05 15:35:00,53.3,52.5,29.82,NNE,18,2.0,7.0,97,0.17,,,0.18,Wunderground v.1.15,2013-11-05 21:35:00,
2013-11-05 15:41:00,53.3,52.5,29.81,NNE,28,2.0,7.0,97,0.09,,,0.18,Wunderground v.1.15,2013-11-05 21:41:00,
2013-11-05 15:47:00,53.3,52.5,29.81,NNE,15,3.0,7.0,97,0.05,,,0.18,Wunderground v.1.15,2013-11-05 21:47:00,
2013-11-05 15:52:00,53.4,52.6,29.81,NE,36,2.0,7.0,97,0.00,,,0.18,Wunderground v.1.15,2013-11-05 21:52:00,
2013-11-05 15:58:00,53.5,52.7,29.81,NE,42,2.0,7.0,97,0.00,,,0.18,Wunderground v.1.15,2013-11-05 21:58:00,
2013-11-05 16:04:00,53.6,52.8,29.81,ESE,107,2.0,7.0,97,0.15,,,0.20,Wunderground v.1.15,2013-11-05 22:04:00,
2013-11-05 16:10:00,53.7,52.9,29.80,NNE,16,3.0,7.0,97,0.09,,,0.20,Wunderground v.1.15,2013-11-05 22:10:00,
2013-11-05 16:15:00,53.8,53.0,29.80,NW,315,2.0,7.0,97,0.05,,,0.20,Wunderground v.1.15,2013-11-05 22:15:00,
2013-11-05 16:21:00,53.8,53.0,29.80,North,10,2.0,7.0,97,0.00,,,0.20,Wunderground v.1.15,2013-11-05 22:21:00,
2013-11-05 16:27:00,53.9,53.1,29.80,NNE,29,2.0,7.0,97,0.00,,,0.20,Wunderground v.1.15,2013-11-05 22:27:00,
2013-11-05 16:33:00,54.0,53.2,29.79,North,360,2.0,7.0,97,0.00,,,0.20,Wunderground v.1.15,2013-11-05 22:33:00,
2013-11-05 16:39:00,54.1,53.3,29.79,East,87,2.0,7.0,97,0.00,,,0.20,Wunderground v.1.15,2013-11-05 22:39:00,
2013-11-05 16:45:00,54.1,53.3,29.79,ENE,66,2.0,7.0,97,0.00,,,0.20,Wunderground v.1.15,2013-11-05 22:45:00,
2013-11-05 16:51:00,54.3,53.5,29.79,NE,34,2.0,7.0,97,0.00,,,0.20,Wunderground v.1.15,2013-11-05 22:51:00,
2013-11-05 16:56:00,54.3,53.5,29.78,NNE,30,2.0,7.0,97,0.00,,,0.20,Wunderground v.1.15,2013-11-05 22:56:00,
2013-11-05 17:02:00,54.4,53.6,29.78,NNE,33,2.0,7.0,97,0.00,,,0.20,Wunderground v.1.15,2013-11-05 23:02:00,
2013-11-05 17:08:00,54.5,53.7,29.78,NW,322,2.0,7.0,97,0.00,,,0.20,Wunderground v.1.15,2013-11-05 23:08:00,
2013-11-05 17:14:00,54.5,53.7,29.78,North,360,1.0,7.0,97,0.00,,,0.20,Wunderground v.1.15,2013-11-05 23:14:00,
2013-11-05 17:19:00,54.6,53.8,29.78,North,360,1.0,7.0,97,0.00,,,0.20,Wunderground v.1.15,2013-11-05 23:19:00,
2013-11-05 17:25:00,54.7,54.1,29.78,NNE,24,1.0,7.0,98,0.00,,,0.21,Wunderground v.1.15,2013-11-05 23:25:00,
2013-11-05 17:30:00,54.8,54.2,29.78,NNE,24,1.0,7.0,98,0.20,,,0.23,Wunderground v.1.15,2013-11-05 23:30:00,
2013-11-05 17:36:00,54.9,54.3,29.78,NNE,33,1.0,7.0,98,0.16,,,0.24,Wunderground v.1.15,2013-11-05 23:36:00,
2013-11-05 17:42:00,55.0,54.4,29.78,NNE,24,1.0,7.0,98,0.21,,,0.27,Wunderground v.1.15,2013-11-05 23:42:00,
2013-11-05 17:47:00,55.1,54.5,29.77,NNE,24,1.0,7.0,98,0.11,,,0.27,Wunderground v.1.15,2013-11-05 23:47:00,
2013-11-05 17:53:00,55.1,54.5,29.77,North,10,1.0,7.0,98,0.07,,,0.28,Wunderground v.1.15,2013-11-05 23:53:00,
2013-11-05 17:59:00,55.2,54.6,29.77,NE,38,1.0,7.0,98,0.07,,,0.28,Wunderground v.1.15,2013-11-05 23:59:00,
2013-11-05 18:04:00,55.3,54.7,29.77,NE,51,2.0,7.0,98,0.04,,,0.28,Wunderground v.1.15,2013-11-06 00:04:00,
2013-11-05 18:10:00,55.3,54.7,29.77,NNE,30,2.0,2.0,98,0.00,,,0.29,Wunderground v.1.15,2013-11-06 00:10:00,
2013-11-05 18:16:00,55.4,54.8,29.77,NNE,30,1.0,7.0,98,0.00,,,0.29,Wunderground v.1.15,2013-11-06 00:16:00,
2013-11-05 18:22:00,55.4,54.8,29.77,North,5,1.0,7.0,98,0.00,,,0.29,Wunderground v.1.15,2013-11-06 00:22:00,
2013-11-05 18:27:00,55.5,54.9,29.77,NNE,13,2.0,7.0,98,0.04,,,0.30,Wunderground v.1.15,2013-11-06 00:27:00,
2013-11-05 18:33:00,55.6,55.0,29.77,NNE,22,2.0,7.0,98,0.04,,,0.30,Wunderground v.1.15,2013-11-06 00:33:00,
2013-11-05 18:38:00,55.6,55.0,29.76,North,11,2.0,7.0,98,0.04,,,0.30,Wunderground v.1.15,2013-11-06 00:38:00,
2013-11-05 18:44:00,55.7,55.1,29.76,SE,139,2.0,7.0,98,0.00,,,0.30,Wunderground v.1.15,2013-11-06 00:44:00,
2013-11-05 18:50:00,55.7,55.1,29.76,ENE,75,2.0,2.0,98,0.00,,,0.30,Wunderground v.1.15,2013-11-06 00:50:00,
2013-11-05 18:56:00,55.7,55.1,29.76,NNE,30,1.0,7.0,98,0.00,,,0.30,Wunderground v.1.15,2013-11-06 00:56:00,
2013-11-05 19:01:00,55.8,55.2,29.76,NNE,26,1.0,7.0,98,0.00,,,0.30,Wunderground v.1.15,2013-11-06 01:01:00,
2013-11-05 19:07:00,55.8,55.2,29.76,NNE,17,1.0,7.0,98,0.00,,,0.30,Wunderground v.1.15,2013-11-06 01:07:00,
2013-11-05 19:13:00,55.8,55.2,29.76,NW,310,2.0,7.0,98,0.00,,,0.30,Wunderground v.1.15,2013-11-06 01:13:00,
2013-11-05 19:19:00,55.8,55.2,29.76,North,5,2.0,7.0,98,0.00,,,0.30,Wunderground v.1.15,2013-11-06 01:19:00,
2013-11-05 19:25:00,55.8,55.2,29.76,North,11,1.0,7.0,98,0.00,,,0.30,Wunderground v.1.15,2013-11-06 01:25:00,
2013-11-05 19:31:00,55.9,55.3,29.76,NE,34,2.0,7.0,98,0.00,,,0.31,Wunderground v.1.15,2013-11-06 01:31:00,
2013-11-05 19:37:00,55.9,55.3,29.75,NE,34,2.0,7.0,98,0.00,,,0.31,Wunderground v.1.15,2013-11-06 01:37:00,
2013-11-05 19:43:00,55.9,55.3,29.76,NNE,15,2.0,7.0,98,0.00,,,0.31,Wunderground v.1.15,2013-11-06 01:43:00,
2013-11-05 19:49:00,55.9,55.3,29.75,NE,47,2.0,7.0,98,0.00,,,0.31,Wunderground v.1.15,2013-11-06 01:49:00,
2013-11-05 19:54:00,55.9,55.3,29.75,NNE,15,2.0,7.0,98,0.00,,,0.31,Wunderground v.1.15,2013-11-06 01:54:00,
2013-11-05 20:00:00,56.0,55.4,29.75,NE,50,2.0,7.0,98,0.00,,,0.31,Wunderground v.1.15,2013-11-06 02:00:00,
2013-11-05 20:06:00,56.0,55.4,29.75,NNE,30,2.0,7.0,98,0.00,,,0.31,Wunderground v.1.15,2013-11-06 02:06:00,
2013-11-05 20:11:00,56.1,55.5,29.75,ENE,60,2.0,7.0,98,0.00,,,0.31,Wunderground v.1.15,2013-11-06 02:11:00,
2013-11-05 20:17:00,56.1,55.5,29.75,NNE,17,2.0,8.0,98,0.00,,,0.31,Wunderground v.1.15,2013-11-06 02:17:00,
2013-11-05 20:23:00,56.2,55.6,29.74,NE,52,2.0,7.0,98,0.00,,,0.31,Wunderground v.1.15,2013-11-06 02:23:00,
2013-11-05 20:28:00,56.2,55.6,29.74,NNE,33,2.0,8.0,98,0.00,,,0.31,Wunderground v.1.15,2013-11-06 02:28:00,
2013-11-05 20:34:00,56.2,55.6,29.74,NNE,32,2.0,7.0,98,0.00,,,0.31,Wunderground v.1.15,2013-11-06 02:34:00,
2013-11-05 20:40:00,56.2,55.6,29.74,North,355,2.0,7.0,98,0.00,,,0.31,Wunderground v.1.15,2013-11-06 02:40:00,
2013-11-05 20:46:00,56.3,55.7,29.74,ENE,75,2.0,7.0,98,0.00,,,0.31,Wunderground v.1.15,2013-11-06 02:46:00,
2013-11-05 20:51:00,56.3,55.7,29.74,NNW,329,2.0,7.0,98,0.00,,,0.31,Wunderground v.1.15,2013-11-06 02:51:00,
2013-11-05 20:56:00,56.4,55.8,29.74,North,360,2.0,7.0,98,0.00,,,0.31,Wunderground v.1.15,2013-11-06 02:56:00,
2013-11-05 21:02:00,56.4,55.8,29.74,North,9,2.0,7.0,98,0.00,,,0.31,Wunderground v.1.15,2013-11-06 03:02:00,
2013-11-05 21:08:00,56.4,55.8,29.75,NE,37,2.0,7.0,98,0.00,,,0.31,Wunderground v.1.15,2013-11-06 03:08:00,
2013-11-05 21:13:00,56.4,55.8,29.75,SW,221,1.0,7.0,98,0.00,,,0.31,Wunderground v.1.15,2013-11-06 03:13:00,
2013-11-05 21:19:00,56.0,55.4,29.76,SW,215,2.0,7.0,98,0.00,,,0.32,Wunderground v.1.15,2013-11-06 03:19:00,
2013-11-05 21:24:00,54.7,53.9,29.76,SSW,206,1.0,7.0,97,0.00,,,0.32,Wunderground v.1.15,2013-11-06 03:24:00,
2013-11-05 21:30:00,52.5,51.7,29.76,SSW,202,1.0,1.0,97,0.07,,,0.33,Wunderground v.1.15,2013-11-06 03:30:00,
2013-11-05 21:36:00,51.0,50.2,29.77,SSW,202,1.0,7.0,97,0.05,,,0.33,Wunderground v.1.15,2013-11-06 03:36:00,
2013-11-05 21:42:00,50.1,49.3,29.77,SSW,202,1.0,7.0,97,0.00,,,0.33,Wunderground v.1.15,2013-11-06 03:42:00,
2013-11-05 21:48:00,49.6,48.8,29.77,SSW,206,1.0,7.0,97,0.00,,,0.34,Wunderground v.1.15,2013-11-06 03:48:00,
2013-11-05 21:53:00,49.1,48.3,29.77,SSW,206,1.0,7.0,97,0.00,,,0.34,Wunderground v.1.15,2013-11-06 03:53:00,
2013-11-05 21:58:00,48.6,47.8,29.78,SSW,206,1.0,7.0,97,0.00,,,0.34,Wunderground v.1.15,2013-11-06 03:58:00,
2013-11-05 22:04:00,47.9,47.1,29.78,SSW,202,2.0,7.0,97,0.00,,,0.34,Wunderground v.1.15,2013-11-06 04:04:00,
2013-11-05 22:09:00,47.4,46.6,29.78,SSW,202,1.0,7.0,97,0.00,,,0.34,Wunderground v.1.15,2013-11-06 04:09:00,
2013-11-05 22:15:00,47.1,46.3,29.78,SSW,203,1.0,7.0,97,0.00,,,0.35,Wunderground v.1.15,2013-11-06 04:15:00,
2013-11-05 22:21:00,46.9,46.1,29.78,SSW,203,2.0,7.0,97,0.00,,,0.35,Wunderground v.1.15,2013-11-06 04:21:00,
2013-11-05 22:26:00,46.7,45.9,29.79,SSW,199,2.0,7.0,97,0.00,,,0.35,Wunderground v.1.15,2013-11-06 04:26:00,
2013-11-05 22:32:00,46.3,45.5,29.79,SSW,196,2.0,7.0,97,0.04,,,0.36,Wunderground v.1.15,2013-11-06 04:32:00,
2013-11-05 22:38:00,45.9,45.1,29.79,SSW,202,2.0,7.0,97,0.07,,,0.37,Wunderground v.1.15,2013-11-06 04:38:00,
2013-11-05 22:44:00,45.8,45.0,29.79,SSW,202,2.0,7.0,97,0.09,,,0.38,Wunderground v.1.15,2013-11-06 04:44:00,
2013-11-05 22:50:00,45.8,45.0,29.79,SSW,202,1.0,7.0,97,0.17,,,0.40,Wunderground v.1.15,2013-11-06 04:50:00,
2013-11-05 22:56:00,45.8,45.0,29.79,SSW,202,1.0,7.0,97,0.06,,,0.40,Wunderground v.1.15,2013-11-06 04:56:00,
2013-11-05 23:02:00,45.8,45.0,29.79,SSW,202,0.0,7.0,97,0.04,,,0.41,Wunderground v.1.15,2013-11-06 05:02:00,
2013-11-05 23:03:00,45.8,45.0,29.79,SSW,209,0.0,7.0,97,0.04,,,0.41,Wunderground v.1.15,2013-11-06 05:03:00,
2013-11-05 23:04:00,45.8,45.0,29.79,SSW,209,0.0,7.0,97,0.04,,,0.41,Wunderground v.1.15,2013-11-06 05:04:00,
2013-11-05 23:06:00,45.7,44.9,29.80,SW,219,0.0,7.0,97,0.04,,,0.41,Wunderground v.1.15,2013-11-06 05:06:00,
2013-11-05 23:12:00,45.3,44.5,29.79,SW,218,1.0,7.0,97,0.04,,,0.41,Wunderground v.1.15,2013-11-06 05:12:00,
2013-11-05 23:16:00,44.9,44.1,29.79,SSW,207,1.0,7.0,97,0.04,,,0.41,Wunderground v.1.15,2013-11-06 05:16:00,
2013-11-05 23:22:00,44.2,43.4,29.80,SSW,205,1.0,7.0,97,0.00,,,0.41,Wunderground v.1.15,2013-11-06 05:22:00,
2013-11-05 23:28:00,43.7,42.9,29.81,SSW,198,1.0,7.0,97,0.00,,,0.41,Wunderground v.1.15,2013-11-06 05:28:00,
2013-11-05 23:34:00,43.4,42.6,29.81,SSW,198,1.0,7.0,97,0.00,,,0.41,Wunderground v.1.15,2013-11-06 05:34:00,
2013-11-05 23:39:00,43.1,42.3,29.81,SSW,200,1.0,7.0,97,0.00,,,0.41,Wunderground v.1.15,2013-11-06 05:39:00,
2013-11-05 23:45:00,42.8,42.0,29.81,SSW,211,1.0,9.0,97,0.00,,,0.41,Wunderground v.1.15,2013-11-06 05:45:00,
2013-11-05 23:51:00,42.5,41.7,29.81,WSW,237,1.0,7.0,97,0.00,,,0.41,Wunderground v.1.15,2013-11-06 05:51:00,
2013-11-05 23:56:00,42.2,41.4,29.81,SW,215,1.0,7.0,97,0.00,,,0.00,Wunderground v.1.15,2013-11-06 05:56:00,